contact:dominique.lefevre@mio.osupytheas.fr, maurice.libes@osupytheas.fr, didier.mallarino@osupytheas.fr
Project:EMSO http://www.emso-fr.org/EMSO-France
Depth: 2436.0 m
Title:EMSO Ligure Ouest : Data MII capteur OXYGEN
DateTime,Latitude,Longitude,Optode-Type,Optode_Serial,Oxygen,Saturation_Oxygen,Temperature
DateTime,Latitude,Longitude,Optode-Type,Optode_Serial,µmol.l-1,%,degC
2019-06-28T00:00:49,42.805,6.029,4330,1995,192.808,58.973,13.295
2019-06-28T00:03:49,42.805,6.029,4330,1995,192.797,58.969,13.295
2019-06-28T00:06:49,42.805,6.029,4330,1995,192.789,58.966,13.294
2019-06-28T00:09:49,42.805,6.029,4330,1995,192.746,58.952,13.294
2019-06-28T00:12:49,42.805,6.029,4330,1995,192.756,58.955,13.294
2019-06-28T00:15:49,42.805,6.029,4330,1995,192.753,58.954,13.294
2019-06-28T00:18:49,42.805,6.029,4330,1995,192.690,58.936,13.295
2019-06-28T00:21:49,42.805,6.029,4330,1995,192.734,58.948,13.294
2019-06-28T00:24:49,42.805,6.029,4330,1995,192.749,58.953,13.293
2019-06-28T00:27:49,42.805,6.029,4330,1995,192.813,58.971,13.293
2019-06-28T00:30:49,42.805,6.029,4330,1995,192.734,58.948,13.293
2019-06-28T00:33:49,42.805,6.029,4330,1995,192.751,58.952,13.293
2019-06-28T00:36:49,42.805,6.029,4330,1995,192.777,58.960,13.293
2019-06-28T00:39:49,42.805,6.029,4330,1995,192.741,58.949,13.293
2019-06-28T00:42:49,42.805,6.029,4330,1995,192.758,58.953,13.292
2019-06-28T00:45:49,42.805,6.029,4330,1995,192.798,58.965,13.292
2019-06-28T00:48:49,42.805,6.029,4330,1995,192.807,58.968,13.292
2019-06-28T00:51:49,42.805,6.029,4330,1995,192.801,58.966,13.291
2019-06-28T00:54:49,42.805,6.029,4330,1995,192.824,58.972,13.291
2019-06-28T00:57:49,42.805,6.029,4330,1995,192.891,58.993,13.291
2019-06-28T01:00:49,42.805,6.029,4330,1995,192.906,59.000,13.293
2019-06-28T01:03:49,42.805,6.029,4330,1995,192.928,59.006,13.292
2019-06-28T01:06:49,42.805,6.029,4330,1995,192.906,58.998,13.291
2019-06-28T01:09:49,42.805,6.029,4330,1995,192.912,59.000,13.292
2019-06-28T01:12:49,42.805,6.029,4330,1995,192.942,59.010,13.292
2019-06-28T01:15:49,42.805,6.029,4330,1995,192.873,58.989,13.293
2019-06-28T01:18:49,42.805,6.029,4330,1995,192.935,59.008,13.292
2019-06-28T01:21:49,42.805,6.029,4330,1995,192.927,59.006,13.293
2019-06-28T01:24:49,42.805,6.029,4330,1995,192.913,59.002,13.293
2019-06-28T01:27:49,42.805,6.029,4330,1995,192.908,59.000,13.293
2019-06-28T01:30:49,42.805,6.029,4330,1995,192.869,58.989,13.293
2019-06-28T01:33:49,42.805,6.029,4330,1995,192.865,58.987,13.293
2019-06-28T01:36:49,42.805,6.029,4330,1995,192.883,58.994,13.294
2019-06-28T01:39:49,42.805,6.029,4330,1995,192.899,58.998,13.293
2019-06-28T01:45:49,42.805,6.029,4330,1995,192.919,58.999,13.289
2019-06-28T01:48:49,42.805,6.029,4330,1995,192.847,58.977,13.290
2019-06-28T01:51:49,42.805,6.029,4330,1995,192.885,58.992,13.292
2019-06-28T01:54:49,42.805,6.029,4330,1995,192.837,58.977,13.292
2019-06-28T01:57:49,42.805,6.029,4330,1995,192.842,58.979,13.292
2019-06-28T02:00:49,42.805,6.029,4330,1995,192.893,58.994,13.291
2019-06-28T02:03:49,42.805,6.029,4330,1995,192.866,58.987,13.292
2019-06-28T02:06:49,42.805,6.029,4330,1995,192.830,58.976,13.292
2019-06-28T02:09:49,42.805,6.029,4330,1995,192.895,58.996,13.293
2019-06-28T02:12:49,42.805,6.029,4330,1995,192.824,58.974,13.292
2019-06-28T02:15:49,42.805,6.029,4330,1995,192.800,58.967,13.293
2019-06-28T02:18:49,42.805,6.029,4330,1995,192.741,58.949,13.292
2019-06-28T02:21:49,42.805,6.029,4330,1995,192.738,58.948,13.292
2019-06-28T02:24:49,42.805,6.029,4330,1995,192.774,58.960,13.294
2019-06-28T02:27:49,42.805,6.029,4330,1995,192.709,58.941,13.294
2019-06-28T02:30:49,42.805,6.029,4330,1995,192.698,58.936,13.293
2019-06-28T02:33:49,42.805,6.029,4330,1995,192.742,58.949,13.293
2019-06-28T02:36:49,42.805,6.029,4330,1995,192.695,58.935,13.292
2019-06-28T02:39:49,42.805,6.029,4330,1995,192.630,58.919,13.295
2019-06-28T02:42:49,42.805,6.029,4330,1995,192.659,58.925,13.294
2019-06-28T02:45:49,42.805,6.029,4330,1995,192.665,58.928,13.294
2019-06-28T02:48:49,42.805,6.029,4330,1995,192.664,58.929,13.295
2019-06-28T02:51:49,42.805,6.029,4330,1995,192.698,58.938,13.294
2019-06-28T02:54:49,42.805,6.029,4330,1995,192.701,58.939,13.294
2019-06-28T02:57:49,42.805,6.029,4330,1995,192.694,58.936,13.294
2019-06-28T03:00:49,42.805,6.029,4330,1995,192.628,58.920,13.297
2019-06-28T03:03:49,42.805,6.029,4330,1995,192.632,58.919,13.295
2019-06-28T03:06:49,42.805,6.029,4330,1995,192.651,58.925,13.295
2019-06-28T03:09:49,42.805,6.029,4330,1995,192.602,58.909,13.295
2019-06-28T03:12:49,42.805,6.029,4330,1995,192.617,58.916,13.296
2019-06-28T03:15:49,42.805,6.029,4330,1995,192.656,58.925,13.294
2019-06-28T03:18:49,42.805,6.029,4330,1995,192.576,58.901,13.295
2019-06-28T03:21:49,42.805,6.029,4330,1995,192.601,58.910,13.295
2019-06-28T03:24:49,42.805,6.029,4330,1995,192.561,58.897,13.295
2019-06-28T03:27:49,42.805,6.029,4330,1995,192.586,58.904,13.295
2019-06-28T03:30:49,42.805,6.029,4330,1995,192.557,58.895,13.295
2019-06-28T03:33:49,42.805,6.029,4330,1995,192.577,58.902,13.295
2019-06-28T03:36:49,42.805,6.029,4330,1995,192.563,58.896,13.294
2019-06-28T03:39:49,42.805,6.029,4330,1995,192.509,58.880,13.294
2019-06-28T03:42:49,42.805,6.029,4330,1995,192.543,58.891,13.294
2019-06-28T03:45:49,42.805,6.029,4330,1995,192.552,58.893,13.294
2019-06-28T03:48:49,42.805,6.029,4330,1995,192.567,58.896,13.292
2019-06-28T03:51:49,42.805,6.029,4330,1995,192.650,58.921,13.293
2019-06-28T03:54:49,42.805,6.029,4330,1995,192.667,58.926,13.292
2019-06-28T03:57:49,42.805,6.029,4330,1995,192.701,58.937,13.293
2019-06-28T04:00:49,42.805,6.029,4330,1995,192.661,58.924,13.292
2019-06-28T04:03:49,42.805,6.029,4330,1995,192.691,58.933,13.292
2019-06-28T04:06:49,42.805,6.029,4330,1995,192.684,58.930,13.292
2019-06-28T04:09:49,42.805,6.029,4330,1995,192.751,58.951,13.292
2019-06-28T04:12:49,42.805,6.029,4330,1995,192.653,58.922,13.292
2019-06-28T04:15:49,42.805,6.029,4330,1995,192.677,58.928,13.292
2019-06-28T04:21:49,42.805,6.029,4330,1995,192.642,58.916,13.290
2019-06-28T04:24:49,42.805,6.029,4330,1995,192.693,58.935,13.293
2019-06-28T04:27:49,42.805,6.029,4330,1995,192.637,58.921,13.296
2019-06-28T04:30:49,42.805,6.029,4330,1995,192.601,58.910,13.295
2019-06-28T04:33:49,42.805,6.029,4330,1995,192.609,58.911,13.295
2019-06-28T04:36:49,42.805,6.029,4330,1995,192.514,58.881,13.294
2019-06-28T04:39:49,42.805,6.029,4330,1995,192.547,58.891,13.294
2019-06-28T04:42:49,42.805,6.029,4330,1995,192.509,58.880,13.294
2019-06-28T04:45:49,42.805,6.029,4330,1995,192.521,58.885,13.295
2019-06-28T04:48:49,42.805,6.029,4330,1995,192.540,58.891,13.296
2019-06-28T04:51:49,42.805,6.029,4330,1995,192.524,58.887,13.296
2019-06-28T04:54:49,42.805,6.029,4330,1995,192.492,58.876,13.295
2019-06-28T04:57:49,42.805,6.029,4330,1995,192.518,58.883,13.294
2019-06-28T05:00:49,42.805,6.029,4330,1995,192.544,58.889,13.293
2019-06-28T05:03:49,42.805,6.029,4330,1995,192.484,58.872,13.294
2019-06-28T05:06:49,42.805,6.029,4330,1995,192.525,58.883,13.292
2019-06-28T05:09:49,42.805,6.029,4330,1995,192.438,58.856,13.292
2019-06-28T05:12:49,42.805,6.029,4330,1995,192.522,58.883,13.294
2019-06-28T05:15:49,42.805,6.029,4330,1995,192.492,58.872,13.292
2019-06-28T05:18:49,42.805,6.029,4330,1995,192.597,58.904,13.292
2019-06-28T05:21:49,42.805,6.029,4330,1995,192.542,58.887,13.292
2019-06-28T05:24:49,42.805,6.029,4330,1995,192.491,58.873,13.293
2019-06-28T05:27:49,42.805,6.029,4330,1995,192.455,58.862,13.293
2019-06-28T05:30:49,42.805,6.029,4330,1995,192.510,58.877,13.292
2019-06-28T05:33:49,42.805,6.029,4330,1995,192.479,58.868,13.292
2019-06-28T05:36:49,42.805,6.029,4330,1995,192.526,58.885,13.294
2019-06-28T05:39:49,42.805,6.029,4330,1995,192.542,58.890,13.294
2019-06-28T05:42:49,42.805,6.029,4330,1995,192.623,58.914,13.294
2019-06-28T05:45:49,42.805,6.029,4330,1995,192.565,58.898,13.295
2019-06-28T05:48:49,42.805,6.029,4330,1995,192.561,58.896,13.294
2019-06-28T05:51:49,42.805,6.029,4330,1995,192.585,58.903,13.294
2019-06-28T05:54:49,42.805,6.029,4330,1995,192.527,58.884,13.293
2019-06-28T05:57:49,42.805,6.029,4330,1995,192.567,58.898,13.294
2019-06-28T06:00:49,42.805,6.029,4330,1995,192.567,58.898,13.294
2019-06-28T06:03:49,42.805,6.029,4330,1995,192.602,58.907,13.293
2019-06-28T06:06:49,42.805,6.029,4330,1995,192.646,58.921,13.293
2019-06-28T06:09:49,42.805,6.029,4330,1995,192.685,58.934,13.294
2019-06-28T06:12:49,42.805,6.029,4330,1995,192.642,58.922,13.295
2019-06-28T06:15:49,42.805,6.029,4330,1995,192.658,58.926,13.294
2019-06-28T06:18:49,42.805,6.029,4330,1995,192.652,58.924,13.294
2019-06-28T06:21:49,42.805,6.029,4330,1995,192.568,58.898,13.294
2019-06-28T06:24:49,42.805,6.029,4330,1995,192.595,58.907,13.294
2019-06-28T06:27:49,42.805,6.029,4330,1995,192.684,58.935,13.296
2019-06-28T06:30:49,42.805,6.029,4330,1995,192.630,58.917,13.294
2019-06-28T06:33:49,42.805,6.029,4330,1995,192.650,58.923,13.294
2019-06-28T06:36:49,42.805,6.029,4330,1995,192.677,58.932,13.295
2019-06-28T06:39:49,42.805,6.029,4330,1995,192.666,58.929,13.295
2019-06-28T06:42:49,42.805,6.029,4330,1995,192.711,58.942,13.294
2019-06-28T06:45:49,42.805,6.029,4330,1995,192.777,58.962,13.294
2019-06-28T06:48:49,42.805,6.029,4330,1995,192.742,58.952,13.295
2019-06-28T06:57:49,42.805,6.029,4330,1995,192.923,58.999,13.288
2019-06-28T07:00:49,42.805,6.029,4330,1995,192.848,58.980,13.291
2019-06-28T07:03:49,42.805,6.029,4330,1995,192.779,58.961,13.293
2019-06-28T07:06:49,42.805,6.029,4330,1995,192.845,58.981,13.293
2019-06-28T07:09:49,42.805,6.029,4330,1995,192.880,58.992,13.293
2019-06-28T07:12:49,42.805,6.029,4330,1995,192.914,59.004,13.294
2019-06-28T07:15:49,42.805,6.029,4330,1995,192.958,59.016,13.293
2019-06-28T07:18:49,42.805,6.029,4330,1995,192.957,59.015,13.293
2019-06-28T07:21:49,42.805,6.029,4330,1995,192.922,59.006,13.294
2019-06-28T07:24:49,42.805,6.029,4330,1995,192.957,59.014,13.292
2019-06-28T07:27:49,42.805,6.029,4330,1995,193.042,59.042,13.293
2019-06-28T07:30:49,42.805,6.029,4330,1995,193.007,59.030,13.293
2019-06-28T07:33:49,42.805,6.029,4330,1995,192.998,59.028,13.293
2019-06-28T07:36:49,42.805,6.029,4330,1995,192.951,59.014,13.294
2019-06-28T07:39:49,42.805,6.029,4330,1995,192.905,59.000,13.294
2019-06-28T07:42:49,42.805,6.029,4330,1995,192.884,58.993,13.293
2019-06-28T07:45:49,42.805,6.029,4330,1995,192.903,59.000,13.294
2019-06-28T07:48:49,42.805,6.029,4330,1995,193.026,59.037,13.293
2019-06-28T07:51:49,42.805,6.029,4330,1995,193.063,59.049,13.294
2019-06-28T07:54:49,42.805,6.029,4330,1995,193.126,59.069,13.294
2019-06-28T07:57:49,42.805,6.029,4330,1995,193.094,59.058,13.294
2019-06-28T08:00:48,42.805,6.029,4330,1995,193.081,59.054,13.294
2019-06-28T08:03:48,42.805,6.029,4330,1995,193.083,59.054,13.293
2019-06-28T08:06:48,42.805,6.029,4330,1995,193.069,59.049,13.292
2019-06-28T08:09:48,42.805,6.029,4330,1995,193.040,59.040,13.292
2019-06-28T08:12:48,42.805,6.029,4330,1995,193.028,59.036,13.292
2019-06-28T08:15:48,42.805,6.029,4330,1995,192.994,59.025,13.291
2019-06-28T08:18:48,42.805,6.029,4330,1995,193.044,59.040,13.291
2019-06-28T08:21:48,42.805,6.029,4330,1995,193.078,59.050,13.291
2019-06-28T08:24:48,42.805,6.029,4330,1995,193.065,59.046,13.291
2019-06-28T08:27:48,42.805,6.029,4330,1995,193.052,59.042,13.291
2019-06-28T08:30:48,42.805,6.029,4330,1995,193.150,59.072,13.291
2019-06-28T08:33:48,42.805,6.029,4330,1995,193.184,59.082,13.291
2019-06-28T08:36:48,42.805,6.029,4330,1995,193.168,59.077,13.291
2019-06-28T08:39:48,42.805,6.029,4330,1995,193.190,59.083,13.290
2019-06-28T08:42:48,42.805,6.029,4330,1995,193.136,59.067,13.291
2019-06-28T08:45:48,42.805,6.029,4330,1995,193.240,59.099,13.291
2019-06-28T08:48:48,42.805,6.029,4330,1995,193.213,59.090,13.290
2019-06-28T08:51:48,42.805,6.029,4330,1995,193.166,59.077,13.291
2019-06-28T08:54:48,42.805,6.029,4330,1995,193.159,59.075,13.291
2019-06-28T08:57:48,42.805,6.029,4330,1995,193.147,59.071,13.291
2019-06-28T09:00:48,42.805,6.029,4330,1995,193.109,59.060,13.291
2019-06-28T09:03:48,42.805,6.029,4330,1995,193.114,59.062,13.292
2019-06-28T09:06:48,42.805,6.029,4330,1995,193.223,59.096,13.292
2019-06-28T09:09:48,42.805,6.029,4330,1995,193.183,59.083,13.292
2019-06-28T09:12:48,42.805,6.029,4330,1995,193.112,59.062,13.293
2019-06-28T09:15:48,42.805,6.029,4330,1995,193.168,59.079,13.292
2019-06-28T09:18:48,42.805,6.029,4330,1995,193.141,59.071,13.292
2019-06-28T09:21:48,42.805,6.029,4330,1995,193.151,59.074,13.292
2019-06-28T09:24:48,42.805,6.029,4330,1995,193.163,59.079,13.294
2019-06-28T09:30:48,42.805,6.029,4330,1995,193.145,59.068,13.289
2019-06-28T09:33:48,42.805,6.029,4330,1995,193.154,59.070,13.289
2019-06-28T09:36:48,42.805,6.029,4330,1995,193.236,59.097,13.290
2019-06-28T09:39:48,42.805,6.029,4330,1995,193.330,59.127,13.291
2019-06-28T09:42:48,42.805,6.029,4330,1995,193.278,59.112,13.291
2019-06-28T09:45:48,42.805,6.029,4330,1995,193.384,59.143,13.291
2019-06-28T09:48:48,42.805,6.029,4330,1995,193.352,59.133,13.291
2019-06-28T09:51:48,42.805,6.029,4330,1995,193.258,59.105,13.291
2019-06-28T09:54:48,42.805,6.029,4330,1995,193.233,59.097,13.291
2019-06-28T09:57:48,42.805,6.029,4330,1995,193.268,59.108,13.291
2019-06-28T10:00:48,42.805,6.029,4330,1995,193.242,59.100,13.291
2019-06-28T10:03:48,42.805,6.029,4330,1995,193.224,59.096,13.292
2019-06-28T10:06:48,42.805,6.029,4330,1995,193.355,59.136,13.292
2019-06-28T10:09:48,42.805,6.029,4330,1995,193.296,59.117,13.292
2019-06-28T10:12:48,42.805,6.029,4330,1995,193.368,59.141,13.293
2019-06-28T10:15:48,42.805,6.029,4330,1995,193.264,59.109,13.293
2019-06-28T10:18:48,42.805,6.029,4330,1995,193.265,59.109,13.293
2019-06-28T10:21:48,42.805,6.029,4330,1995,193.266,59.110,13.293
2019-06-28T10:24:48,42.805,6.029,4330,1995,193.320,59.126,13.292
2019-06-28T10:27:48,42.805,6.029,4330,1995,193.251,59.105,13.292
2019-06-28T10:30:48,42.805,6.029,4330,1995,193.240,59.101,13.292
2019-06-28T10:33:48,42.805,6.029,4330,1995,193.250,59.106,13.293
2019-06-28T10:36:48,42.805,6.029,4330,1995,193.306,59.123,13.294
2019-06-28T10:39:48,42.805,6.029,4330,1995,193.299,59.121,13.293
2019-06-28T10:42:48,42.805,6.029,4330,1995,193.295,59.120,13.294
2019-06-28T10:45:48,42.805,6.029,4330,1995,193.283,59.116,13.293
2019-06-28T10:48:48,42.805,6.029,4330,1995,193.267,59.110,13.293
2019-06-28T10:51:48,42.805,6.029,4330,1995,193.236,59.102,13.294
2019-06-28T10:54:48,42.805,6.029,4330,1995,193.221,59.096,13.293
2019-06-28T10:57:48,42.805,6.029,4330,1995,193.217,59.096,13.294
2019-06-28T11:00:48,42.805,6.029,4330,1995,193.291,59.117,13.293
2019-06-28T11:03:48,42.805,6.029,4330,1995,193.259,59.109,13.294
2019-06-28T11:06:48,42.805,6.029,4330,1995,193.305,59.124,13.295
2019-06-28T11:09:48,42.805,6.029,4330,1995,193.219,59.097,13.294
2019-06-28T11:12:48,42.805,6.029,4330,1995,193.198,59.090,13.294
2019-06-28T11:15:48,42.805,6.029,4330,1995,193.126,59.068,13.294
2019-06-28T11:18:48,42.805,6.029,4330,1995,193.256,59.106,13.292
2019-06-28T11:21:48,42.805,6.029,4330,1995,193.208,59.092,13.293
2019-06-28T11:24:48,42.805,6.029,4330,1995,193.200,59.090,13.293
2019-06-28T11:27:48,42.805,6.029,4330,1995,193.201,59.090,13.293
2019-06-28T11:30:48,42.805,6.029,4330,1995,193.272,59.111,13.292
2019-06-28T11:33:48,42.805,6.029,4330,1995,193.338,59.131,13.293
2019-06-28T11:36:48,42.805,6.029,4330,1995,193.177,59.081,13.292
2019-06-28T11:39:48,42.805,6.029,4330,1995,193.190,59.085,13.292
2019-06-28T11:42:48,42.805,6.029,4330,1995,193.253,59.105,13.292
2019-06-28T11:45:48,42.805,6.029,4330,1995,193.283,59.113,13.291
2019-06-28T11:48:48,42.805,6.029,4330,1995,193.214,59.092,13.291
2019-06-28T11:51:48,42.805,6.029,4330,1995,193.219,59.093,13.291
2019-06-28T11:54:48,42.805,6.029,4330,1995,193.260,59.106,13.291
2019-06-28T11:57:48,42.805,6.029,4330,1995,193.177,59.081,13.291
2019-06-28T12:00:48,42.805,6.029,4330,1995,193.194,59.085,13.291
2019-06-28T12:06:48,42.805,6.029,4330,1995,193.117,59.063,13.292
2019-06-28T12:09:48,42.805,6.029,4330,1995,193.149,59.074,13.293
2019-06-28T12:12:48,42.805,6.029,4330,1995,193.075,59.051,13.293
2019-06-28T12:15:48,42.805,6.029,4330,1995,193.091,59.057,13.294
2019-06-28T12:18:48,42.805,6.029,4330,1995,193.048,59.045,13.294
2019-06-28T12:21:48,42.805,6.029,4330,1995,193.052,59.045,13.293
2019-06-28T12:24:48,42.805,6.029,4330,1995,193.092,59.058,13.294
2019-06-28T12:27:48,42.805,6.029,4330,1995,193.112,59.064,13.294
2019-06-28T12:30:48,42.805,6.029,4330,1995,193.009,59.031,13.293
2019-06-28T12:33:48,42.805,6.029,4330,1995,193.065,59.048,13.293
2019-06-28T12:36:48,42.805,6.029,4330,1995,193.131,59.069,13.293
2019-06-28T12:39:48,42.805,6.029,4330,1995,193.086,59.054,13.292
2019-06-28T12:42:48,42.805,6.029,4330,1995,193.086,59.054,13.292
2019-06-28T12:45:48,42.805,6.029,4330,1995,193.069,59.049,13.292
2019-06-28T12:48:48,42.805,6.029,4330,1995,193.054,59.044,13.293
2019-06-28T12:51:48,42.805,6.029,4330,1995,193.103,59.059,13.292
2019-06-28T12:54:48,42.805,6.029,4330,1995,193.096,59.056,13.292
2019-06-28T12:57:48,42.805,6.029,4330,1995,193.122,59.064,13.292
2019-06-28T13:00:48,42.805,6.029,4330,1995,193.083,59.052,13.291
2019-06-28T13:03:48,42.805,6.029,4330,1995,193.080,59.050,13.291
2019-06-28T13:06:48,42.805,6.029,4330,1995,193.131,59.066,13.290
2019-06-28T13:09:48,42.805,6.029,4330,1995,193.061,59.045,13.291
2019-06-28T13:12:48,42.805,6.029,4330,1995,193.123,59.065,13.292
2019-06-28T13:15:48,42.805,6.029,4330,1995,193.091,59.054,13.291
2019-06-28T13:18:48,42.805,6.029,4330,1995,193.061,59.046,13.292
2019-06-28T13:21:48,42.805,6.029,4330,1995,193.103,59.058,13.291
2019-06-28T13:24:48,42.805,6.029,4330,1995,193.154,59.074,13.292
2019-06-28T13:27:48,42.805,6.029,4330,1995,193.112,59.061,13.291
2019-06-28T13:30:48,42.805,6.029,4330,1995,193.169,59.080,13.293
2019-06-28T13:33:48,42.805,6.029,4330,1995,193.187,59.084,13.292
2019-06-28T13:36:48,42.805,6.029,4330,1995,193.187,59.085,13.292
2019-06-28T13:39:48,42.805,6.029,4330,1995,193.163,59.078,13.292
2019-06-28T13:42:48,42.805,6.029,4330,1995,193.145,59.073,13.293
2019-06-28T13:45:48,42.805,6.029,4330,1995,193.200,59.089,13.292
2019-06-28T13:48:48,42.805,6.029,4330,1995,193.240,59.100,13.292
2019-06-28T13:51:48,42.805,6.029,4330,1995,193.236,59.101,13.293
2019-06-28T13:54:48,42.805,6.029,4330,1995,193.204,59.090,13.292
2019-06-28T13:57:48,42.805,6.029,4330,1995,193.169,59.080,13.293
2019-06-28T14:00:48,42.805,6.029,4330,1995,193.254,59.107,13.294
2019-06-28T14:03:48,42.805,6.029,4330,1995,193.197,59.089,13.293
2019-06-28T14:06:48,42.805,6.029,4330,1995,193.190,59.087,13.293
2019-06-28T14:09:48,42.805,6.029,4330,1995,193.191,59.087,13.293
2019-06-28T14:12:48,42.805,6.029,4330,1995,193.202,59.091,13.293
2019-06-28T14:15:48,42.805,6.029,4330,1995,193.258,59.110,13.295
2019-06-28T14:18:48,42.805,6.029,4330,1995,193.229,59.100,13.294
2019-06-28T14:21:48,42.805,6.029,4330,1995,193.264,59.109,13.293
2019-06-28T14:24:48,42.805,6.029,4330,1995,193.301,59.123,13.294
2019-06-28T14:27:48,42.805,6.029,4330,1995,193.300,59.120,13.293
2019-06-28T14:30:48,42.805,6.029,4330,1995,193.325,59.125,13.291
2019-06-28T14:33:48,42.805,6.029,4330,1995,193.295,59.117,13.291
2019-06-28T14:42:48,42.805,6.029,4330,1995,193.319,59.120,13.288
2019-06-28T14:45:48,42.805,6.029,4330,1995,193.358,59.136,13.291
2019-06-28T14:48:48,42.805,6.029,4330,1995,193.202,59.088,13.292
2019-06-28T14:51:48,42.805,6.029,4330,1995,193.248,59.102,13.291
2019-06-28T14:54:48,42.805,6.029,4330,1995,193.231,59.098,13.292
2019-06-28T14:57:48,42.805,6.029,4330,1995,193.254,59.105,13.292
2019-06-28T15:00:48,42.805,6.029,4330,1995,193.269,59.111,13.293
2019-06-28T15:03:48,42.805,6.029,4330,1995,193.275,59.110,13.291
2019-06-28T15:06:48,42.805,6.029,4330,1995,193.285,59.114,13.292
2019-06-28T15:09:48,42.805,6.029,4330,1995,193.353,59.136,13.292
2019-06-28T15:12:48,42.805,6.029,4330,1995,193.364,59.139,13.292
2019-06-28T15:15:48,42.805,6.029,4330,1995,193.375,59.143,13.293
2019-06-28T15:18:48,42.805,6.029,4330,1995,193.416,59.155,13.293
2019-06-28T15:21:48,42.805,6.029,4330,1995,193.336,59.132,13.294
2019-06-28T15:24:48,42.805,6.029,4330,1995,193.361,59.139,13.293
2019-06-28T15:27:48,42.805,6.029,4330,1995,193.408,59.154,13.293
2019-06-28T15:30:48,42.805,6.029,4330,1995,193.389,59.148,13.293
2019-06-28T15:33:48,42.805,6.029,4330,1995,193.359,59.138,13.293
2019-06-28T15:36:48,42.805,6.029,4330,1995,193.408,59.153,13.293
2019-06-28T15:39:48,42.805,6.029,4330,1995,193.370,59.141,13.293
2019-06-28T15:42:48,42.805,6.029,4330,1995,193.404,59.153,13.293
2019-06-28T15:45:48,42.805,6.029,4330,1995,193.408,59.153,13.293
2019-06-28T15:48:48,42.805,6.029,4330,1995,193.381,59.145,13.293
2019-06-28T15:51:48,42.805,6.029,4330,1995,193.370,59.142,13.293
2019-06-28T15:54:48,42.805,6.029,4330,1995,193.455,59.167,13.292
2019-06-28T15:57:48,42.805,6.029,4330,1995,193.442,59.163,13.292
2019-06-28T16:00:48,42.805,6.029,4330,1995,193.455,59.164,13.291
2019-06-28T16:03:48,42.805,6.029,4330,1995,193.446,59.161,13.290
2019-06-28T16:06:48,42.805,6.029,4330,1995,193.432,59.158,13.291
2019-06-28T16:09:48,42.805,6.029,4330,1995,193.490,59.176,13.291
2019-06-28T16:12:48,42.805,6.029,4330,1995,193.445,59.162,13.291
2019-06-28T16:15:48,42.805,6.029,4330,1995,193.414,59.152,13.291
2019-06-28T16:18:48,42.805,6.029,4330,1995,193.444,59.159,13.289
2019-06-28T16:21:48,42.805,6.029,4330,1995,193.468,59.168,13.290
2019-06-28T16:24:48,42.805,6.029,4330,1995,193.496,59.178,13.291
2019-06-28T16:27:48,42.805,6.029,4330,1995,193.420,59.154,13.291
2019-06-28T16:30:48,42.805,6.029,4330,1995,193.336,59.128,13.290
2019-06-28T16:33:48,42.805,6.029,4330,1995,193.332,59.128,13.291
2019-06-28T16:36:48,42.805,6.029,4330,1995,193.334,59.128,13.291
2019-06-28T16:39:48,42.805,6.029,4330,1995,193.311,59.121,13.291
2019-06-28T16:42:48,42.805,6.029,4330,1995,193.208,59.090,13.292
2019-06-28T16:45:48,42.805,6.029,4330,1995,193.247,59.101,13.290
2019-06-28T16:48:48,42.805,6.029,4330,1995,193.252,59.103,13.291
2019-06-28T16:51:48,42.805,6.029,4330,1995,193.363,59.138,13.291
2019-06-28T16:54:48,42.805,6.029,4330,1995,193.290,59.115,13.292
2019-06-28T16:57:48,42.805,6.029,4330,1995,193.259,59.106,13.292
2019-06-28T17:00:48,42.805,6.029,4330,1995,193.333,59.129,13.292
2019-06-28T17:03:48,42.805,6.029,4330,1995,193.335,59.131,13.293
2019-06-28T17:06:48,42.805,6.029,4330,1995,193.344,59.133,13.292
2019-06-28T17:09:48,42.805,6.029,4330,1995,193.264,59.109,13.293
2019-06-28T17:15:48,42.805,6.029,4330,1995,193.328,59.123,13.289
2019-06-28T17:18:48,42.805,6.029,4330,1995,193.335,59.126,13.289
2019-06-28T17:21:48,42.805,6.029,4330,1995,193.296,59.116,13.291
2019-06-28T17:24:48,42.805,6.029,4330,1995,193.264,59.106,13.290
2019-06-28T17:27:48,42.805,6.029,4330,1995,193.216,59.092,13.291
2019-06-28T17:30:48,42.805,6.029,4330,1995,193.244,59.100,13.291
2019-06-28T17:33:48,42.805,6.029,4330,1995,193.269,59.108,13.291
2019-06-28T17:36:48,42.805,6.029,4330,1995,193.330,59.126,13.290
2019-06-28T17:39:48,42.805,6.029,4330,1995,193.284,59.113,13.291
2019-06-28T17:42:48,42.805,6.029,4330,1995,193.360,59.136,13.290
2019-06-28T17:45:48,42.805,6.029,4330,1995,193.338,59.129,13.290
2019-06-28T17:48:48,42.805,6.029,4330,1995,193.348,59.133,13.291
2019-06-28T17:51:48,42.805,6.029,4330,1995,193.274,59.111,13.292
2019-06-28T17:54:48,42.805,6.029,4330,1995,193.367,59.140,13.292
2019-06-28T17:57:48,42.805,6.029,4330,1995,193.239,59.100,13.292
2019-06-28T18:00:48,42.805,6.029,4330,1995,193.201,59.089,13.292
2019-06-28T18:03:48,42.805,6.029,4330,1995,193.189,59.086,13.292
2019-06-28T18:06:48,42.805,6.029,4330,1995,193.232,59.098,13.291
2019-06-28T18:09:48,42.805,6.029,4330,1995,193.246,59.102,13.292
2019-06-28T18:12:48,42.805,6.029,4330,1995,193.236,59.101,13.293
2019-06-28T18:15:48,42.805,6.029,4330,1995,193.319,59.126,13.293
2019-06-28T18:18:48,42.805,6.029,4330,1995,193.280,59.113,13.292
2019-06-28T18:21:48,42.805,6.029,4330,1995,193.276,59.114,13.293
2019-06-28T18:24:48,42.805,6.029,4330,1995,193.358,59.137,13.292
2019-06-28T18:27:48,42.805,6.029,4330,1995,193.326,59.128,13.293
2019-06-28T18:30:48,42.805,6.029,4330,1995,193.281,59.115,13.293
2019-06-28T18:33:48,42.805,6.029,4330,1995,193.366,59.139,13.292